Location: Oshawa
(43.9000°N, 78.8670°W)
Time: 13:01:17
(UTC-04:00)

Iridium 98 - Visible Passes

Search period start: 04 July 2015 00:00
Search period end: 14 July 2015 00:00
Orbit: 776 x 779 km, 86.4° (Epoch: 04 July)

Date Brightness Start Highest point End Pass type
(mag) Time Alt. Az. Time Alt. Az. Time Alt. Az.
04 Jul 8.2 02:22:38 10° E 02:23:58 11° ENE 02:25:38 10° ENE visible
04 Jul 5.5 03:59:26 14° S 04:03:59 89° W 04:09:15 10° N visible
05 Jul 6.2 03:26:16 14° SSE 03:30:31 51° E 03:35:35 10° NNE visible
06 Jul 7.2 02:53:06 11° SE 02:57:09 28° E 03:01:37 10° NNE visible
06 Jul 6.3 04:33:35 13° SW 04:37:48 35° W 04:42:34 10° NNW visible
07 Jul 7.9 02:20:51 10° ESE 02:23:52 16° E 02:27:07 10° NE visible
07 Jul 5.6 04:00:23 19° SSW 04:04:07 63° W 04:09:19 10° N visible
08 Jul 5.7 03:27:11 22° S 03:30:34 73° E 03:35:48 10° N visible
09 Jul 6.6 02:53:58 19° SE 02:57:08 40° E 03:02:01 10° NNE visible
09 Jul 6.8 04:34:27 13° SW 04:38:04 25° WNW 04:42:19 10° NNW visible
10 Jul 7.4 02:20:44 14° SE 02:23:49 23° E 02:27:53 10° NNE visible
10 Jul 6.0 04:01:13 22° SW 04:04:17 44° W 04:09:17 10° N visible
11 Jul 7.9 01:48:29 10° E 01:50:34 13° ENE 01:52:56 10° NE visible
11 Jul 5.5 03:27:59 30° S 03:30:40 80° W 03:35:55 10° N visible
12 Jul 5.9 02:54:44 30° SSE 02:57:10 57° E 03:02:18 10° N visible
12 Jul 7.2 04:35:13 11° WSW 04:38:24 18° WNW 04:41:51 10° NNW visible
13 Jul 6.9 02:21:28 22° SE 02:23:46 32° E 02:28:24 10° NNE visible
13 Jul 6.5 04:01:57 21° SW 04:04:31 31° WNW 04:09:07 10° NNW visible
